Regional Weather Roundup
Issued by NWS Sioux Falls, SD

Home | Current Version | Previous Version | Text Only | Print | Product List | Glossary On
Versions: 1 2 3 4 5 6 7 8 9 10 11 12 13 14 15 16 17 18 19 20 21 22 23 24 25 26 27 28 29 30 31 32 33 34 35 36 37 38 39 40 41 42 43 44 45 46 47 48 49 50
000
ASUS43 KFSD 112102
RWRFSD

WEATHER ROUNDUP FOR SE SOUTH DAKOTA/SW MINNESOTA/NW IOWA
NATIONAL WEATHER SERVICE SIOUX FALLS SD
400 PM CDT FRI JUL 11 2014

NOTE: "FAIR" INDICATES FEW OR NO CLOUDS BELOW 12,000 FEET WITH NO
SIGNIFICANT WEATHER AND OR OBSTRUCTIONS TO VISIBILITY.


SDZ038>040-050-052>070-112200-
SOUTHEAST SOUTH DAKOTA

CITY           SKY/WX    TMP DP  RH WIND       PRES   REMARKS
CHAMBERLAIN    PTSUNNY   90  63  41 NE8       29.95R
HURON          SUNNY     93  63  36 NE3       29.92S
MADISON        FAIR      84  75  74 CALM      29.98R
MITCHELL       SUNNY     87  75  67 SE9       29.94R HX  96
SIOUX FALLS    PTSUNNY   83  72  69 NW5       29.97R
WINNER         FAIR      93  64  38 E12       29.96S
YANKTON        PTSUNNY   82  73  74 SE7       29.97R
$$

MNZ071-072-080-081-089-090-097-098-112200-
SOUTHWEST MINNESOTA

CITY           SKY/WX    TMP DP  RH WIND       PRES   REMARKS
FAIRMONT       CLOUDY    82  66  57 S10       29.98S
JACKSON        MOSUNNY   81  68  65 SW9       30.00R
LUVERNE        PTSUNNY   82  70  65 SE3       29.98S
MARSHALL       MOSUNNY   84  72  65 SW10      29.94S
MONTEVIDEO     SUNNY     91  72  52 CALM      29.93F HX  98
PIPESTONE      MOSUNNY   81  72  74 SW6       29.98F
REDWOOD FALLS  SUNNY     83  71  67 SW15      29.95R
TRACY          MOSUNNY   82  71  70 SW13      29.97S
WINDOM         PTSUNNY   82  70  65 SW10G16   29.98S
WORTHINGTON    PTSUNNY   79  70  73 W7        30.00F
$$

IAZ001>003-012>014-020>022-031-032-NEZ013-014-SDZ071-112200-
NORTHWEST IOWA

CITY           SKY/WX    TMP DP  RH WIND       PRES   REMARKS
CHEROKEE       PTSUNNY   78  71  78 SW8       29.99S
DENISON        CLOUDY    75  72  88 S5        29.99S
ESTHERVILLE    MOSUNNY   81  69  67 SW10      29.98S
LE MARS        CLOUDY    77  70  78 S9        30.00R
ORANGE CITY    CLOUDY    79  70  73 S7        30.00R
SHELDON        PTSUNNY   77  70  78 VRB7      29.99R
SIOUX CITY     CLOUDY    76  70  82 SE7       29.98S
SPENCER        MOSUNNY   78  68  71 VRB5      29.99S
STORM LAKE     MOSUNNY   77  72  83 S7        30.01R
$$

ABBREVIATIONS USED IN REMARKS
   TC - TEMPERATURE IN CELSIUS
  WCI - WIND CHILL INDEX
   HX - HEAT INDEX
  VSB - VISIBILITY




USA.gov is the U.S. government's official web portal to all federal, state and local government web resources and services.